COSMOS 1691 DEB, 19111

Orbit data source: Space-Track

COSMOS 1691 DEB, 19111 is space debris in LEO originally from a launch on Wed, 09 Oct 1985 UTC launched from the Plesetsk Missile And Space Complex (PKMTR). Debris objects in space refer to the collection of defunct objects orbiting the Earth. Examples of debris include non-operational satellites, rocket bodies, and fragments generated from explosions, collisions, or faulty payload assembly.

Loading next visibility...
Identifier
19111, 1985-094W
Orbit
LEO
Country
Flag of CISCIS
Related business
Manufacturer
Unknown
Mission
Spacecraft
Bus & Motor
Unknown
Mass
Unknown
Launch date (UTC)
1985-10-09 (41 years ago)
Launch vehicle
Unknown
Launch site
Plesetsk Missile And Space Complex (PKMTR)
Object type
Payload
Rocket body
Debris
Shape & HBR
Unknown shape, 0.1 m
Radar Cross Section
Medium (>0.1 m² and <1 m²)

Expand to show TLE details & history
Last TLE update: 2 days ago

TLE from 2 days ago
0 COSMOS 1691 DEB
1 19111U 85094W   26171.39160502  .00000173  00000-0  81144-3 0  9994
2 19111  82.6049 202.9962 0016102  70.5823 308.0172 12.70263597773706
Epoch: 2026-06-20T09:23Z
TLE epoch observation values (Epoch: 2026-06-20T09:23:54.673Z)
Latitude
18.28884°
Longitude
155.85781°
Altitude
1,375.405 km
Speed
7.176 km/s
True Right ascension
13h 41m 46s
True Declination
18° 11' 41"
Sunlit
Object was in daylight at epoch
Visualization orbit readout
Latitude
Unknown
Longitude
Unknown
Altitude
Unknown
Speed
Unknown
Apparent Right ascension
Unknown
Apparent Declination
Unknown
Sunlit
N/A
Visualization observer readout
Local Sidereal Time
04:00:18
Azimuth
Unknown
Elevation
Unknown
Doppler factor
Unknown
Orbital elements
Apogee altitude
1,390.664 km
Perigee altitude
1,365.686 km
Semi-major axis
7,756.312 km
Eccentricity
0.00161
Inclination
82.6049°
RAAN
202.9962°
Arg. of periapsis
70.5823°
True anomaly
307.87165°
Mean anomaly
308.0172°
Eccentric anomaly
307.94444°
Mean motion
3.17732 °/min
Orbital period
113.3 mins
BSTAR
0.00081144
Loading maneuver chart data...
Computing Atmospheric mass density...
Loading historical data...
Loading historical data...
Loading historical data...
Loading historical data...
Loading historical data...
Loading historical data...
Loading historical data...

Documentation

Showing up to 5 results
|